Date,TemperatureHighF,TemperatureAvgF,TemperatureLowF,DewpointHighF,DewpointAvgF,DewpointLowF,HumidityHigh,HumidityAvg,HumidityLow,PressureMaxIn,PressureMinIn,WindSpeedMaxMPH,WindSpeedAvgMPH,GustSpeedMaxMPH,PrecipitationSumIn
2013-5-1,77.3,71.6,68.9,73.0,69.5,66.0,97,93,76,30.02,29.95,9,2,0,0.35
2013-5-2,74.4,70.0,66.5,71.0,68.7,66.0,97,95,87,29.97,29.83,8,2,0,2.25
2013-5-3,79.7,72.0,68.1,71.0,68.3,67.0,98,89,70,29.84,29.68,18,5,0,0.11
2013-5-4,83.8,74.7,68.5,71.0,68.5,67.0,96,82,60,29.79,29.66,8,2,0,0.02
2013-5-5,78.9,70.7,62.1,68.0,53.9,44.0,92,59,32,29.94,29.75,18,4,0,0.01
2013-5-6,79.2,70.2,63.5,61.0,56.1,51.0,83,63,41,30.01,29.89,15,4,0,0.00
2013-5-7,79.5,69.4,58.8,61.0,56.6,54.0,88,65,47,30.06,29.95,11,3,0,0.00
2013-5-8,83.2,73.2,64.2,63.0,60.3,57.0,90,66,44,30.14,30.03,10,2,0,0.00
2013-5-9,86.4,75.1,65.3,66.0,61.9,55.0,89,66,35,30.15,30.07,7,2,0,0.00
2013-5-10,91.1,77.9,67.3,72.0,68.4,65.0,94,75,45,30.14,29.99,12,3,0,0.00
2013-5-11,92.1,78.7,71.3,73.0,69.6,65.0,92,75,49,30.06,29.96,15,3,0,0.00
2013-5-12,90.1,79.7,70.9,73.0,67.9,65.0,93,69,47,30.03,29.93,9,3,0,0.00
2013-5-13,83.6,74.7,68.1,68.0,60.6,51.0,87,64,36,30.13,29.99,9,3,0,0.00
2013-5-14,82.5,72.1,62.4,58.0,54.2,46.0,80,57,28,30.21,30.12,12,3,0,0.00
2013-5-15,84.1,73.8,62.6,63.0,58.8,54.0,92,62,40,30.22,30.10,9,2,0,0.00
2013-5-16,86.1,75.3,66.0,65.0,62.8,59.0,88,67,40,30.14,30.02,9,3,0,0.00
2013-5-17,87.0,76.6,67.0,69.0,65.5,62.0,90,70,46,30.11,30.03,9,2,0,0.00
2013-5-18,90.3,79.1,69.9,72.0,68.9,61.0,94,73,39,30.12,30.01,10,2,0,0.00
2013-5-19,89.4,76.7,69.9,73.0,71.3,67.0,96,84,54,30.09,30.00,11,2,0,2.75
2013-5-20,88.1,76.2,71.1,74.0,70.7,67.0,96,85,51,30.09,29.99,9,1,0,1.18
2013-5-21,82.1,73.5,70.0,73.0,70.7,69.0,97,91,70,30.04,29.95,5,1,0,0.18
2013-5-22,87.9,75.7,69.7,73.0,71.0,69.0,98,86,55,29.98,29.92,7,1,0,1.24
2013-5-23,91.4,78.8,71.2,74.0,70.9,68.0,97,79,49,30.00,29.91,8,2,0,0.03
2013-5-24,94.8,82.1,72.6,75.0,68.2,61.0,94,67,32,30.09,29.96,8,2,0,0.00
2013-5-25,83.9,77.4,71.1,70.0,64.9,60.0,90,67,48,30.20,30.07,11,4,0,0.00
2013-5-26,84.4,74.4,66.0,63.0,60.4,57.0,81,63,40,30.22,30.14,10,3,0,0.00
2013-5-27,84.6,75.9,68.1,66.0,63.8,61.0,87,68,45,30.18,30.11,11,3,0,0.00
2013-5-28,86.2,77.7,69.9,72.0,69.2,66.0,90,76,59,30.15,30.07,12,5,0,0.00
2013-5-29,84.7,77.2,72.7,74.0,72.1,70.0,94,84,64,30.15,30.06,12,4,0,0.26
2013-5-30,84.9,78.1,72.1,75.0,71.6,68.0,96,81,57,30.12,30.05,14,5,0,0.27
2013-5-31,84.6,78.3,72.4,75.0,71.2,69.0,93,79,63,30.11,30.04,14,5,0,0.02